GSAT0227 (GALILEO 30)

Last updated on Thu Nov 21 2024 00:02:31 GMT+0000 (Coordinated Universal Time)

1 59600U 24079C 24323.56661993 .00000033 00000+0 00000+0 0 9995 2 59600 54.7769 117.1878 0003831 115.6955 244.3160 1.70474673 3563
UTC large
Height (km)
Speed (km/s)
/
Latitude / Longitude
Inclination (degrees)
Orbital Period (minutes)
Azimuth
Elevation
Range (km)
Doppler Factor

Next 0 passes for location: London (51.5072 / 0.1276)

Sorry there are no passes over London.